sat.trackr.live / text

‹ back to catalog

STARLINK-34802

NORAD 65067 · 2025-165M

PAYLOAD ACTIVE UNKNOWN

§ Identity

Operator
Country
US
Launch date
2025-07-31
Launch site
AFWTR
Launch vehicle
Mass (kg)
RCS (m²)

Purposes: comms

External: N2YO · Heavens-Above · Gunter

§ Orbital elements

Epoch: 2026-05-25T05:04:16.805568Z

Period
95.64 min
Inclination
97.4506°
Eccentricity
0.0001766
Mean motion
15.05657277 rev/d
Perigee alt
548.3 km
Apogee alt
550.7 km
Semi-major
6,927.6 km
B*
3.0896e-4
RAAN
222.2714°
Arg perigee
145.3477°
Mean anomaly
214.7866°
Rev number
4,630

§ Raw data

STARLINK-348021 65067U 25165M   26145.21130562  .00004403  00000+0  30896-3 0  99902 65067  97.4506 222.2714 0001766 145.3477 214.7866 15.05657277 46300

JSON: /api/v1/satellites/65067 · /tle

For live sub-satellite position, see the globe view (requires WebGL).

§ Visibility from observer

Set your observer location to see the next 7 days of passes ≥ 10°. The values pass through the URL so the page stays shareable.

No JS? Fill the form by hand. The geolocation button needs JavaScript.